Weather History for Kalispell, MT

Change the Weather History Date:

Thursday, May 23, 2013

  Actual Average Record
Temperature  
Mean Temperature 43 °F 54 °F  
Max Temperature 55 °F 67 °F 87 °F (2001)
Min Temperature 32 °F 41 °F 26 °F (1953)
Degree Days  
Heating Degree Days 22 11  
Month to date heating degree days 330  
Since 1 July heating degree days 7741  
Cooling Degree Days 0 0  
Month to date cooling degree days 0  
Year to date cooling degree days 0  
Moisture  
Dew Point 34 °F    
Average Humidity 88    
Maximum Humidity 100    
Minimum Humidity 53    
Precipitation  
Precipitation 0.56 in 0.08 in 0.51 in (1942)
Month to date precipitation 1.33  
Year to date precipitation 5.96  
Snow  
Snow 0.00 in - - ()
Month to date snowfall  
Year to date snowfall  
Since 1 July snowfall  
Snow Depth -    
Sea Level Pressure  
Sea Level Pressure 30.01 in    
Wind  
Wind Speed 2 mph (ENE)    
Max Wind Speed 7 mph    
Max Gust Speed -    
Visibility 5 miles    
Events Rain , Snow    
T = Trace of Precipitation, MM = Missing Value Source: NWS Daily Summary

Daily Weather History Graph

Daily Weather History Graph

Search for Another Location

Airport:

Trip Planner

Search our weather history database for the weather conditions in past years. The results will help you decide how hot, cold, wet, or windy it might be!

Date:

Astronomy

May. 23, 2013 Rise Set
Actual Time 5:47 AM MDT 9:20 PM MDT
Civil Twilight 5:08 AM MDT 9:59 PM MDT
Nautical Twilight 4:16 AM MDT 10:51 PM MDT
Astronomical Twilight 3:06 AM MDT 12:03 AM MDT
Moon 7:52 PM MDT (5/23) 4:44 AM MDT (5/23)
Length of Visible Light 16h 50m
Length of Day
15h 32m
Waxing Gibbous, 97% of the Moon is Illuminated
May 23
Waxing Gibbous
May 24
Full
May 31
Last Quarter
Jun 8
New
Jun 16
First Quarter

Hourly Weather History & Observations

Time (MDT) Temp. Windchill Dew Point Humidity Pressure Visibility Wind Dir Wind Speed Gust Speed Precip Events Conditions
12:07 AM 37.4 °F 33.8 °F 35.6 °F 93% 30.02 in 7.0 mi SSE 4.6 mph - 0.02 in Rain Rain
12:23 AM 37.4 °F 32.8 °F 35.6 °F 93% 30.02 in 8.0 mi ESE 5.8 mph - 0.05 in Rain Rain
12:55 AM 37.0 °F - 35.1 °F 93% 30.03 in 9.0 mi Calm Calm - 0.10 in Rain Rain
1:17 AM 35.6 °F 31.7 °F 33.8 °F 93% 30.01 in 8.0 mi South 4.6 mph - 0.05 in Rain Rain
1:25 AM 35.6 °F - 33.8 °F 93% 30.01 in 7.0 mi Calm Calm - 0.06 in Rain Rain
1:48 AM 33.8 °F - 33.8 °F 100% 30.01 in 3.0 mi Calm Calm - 0.11 in Snow Light Snow
1:55 AM 34.0 °F - 33.1 °F 96% 30.03 in 3.0 mi Calm Calm - 0.12 in Snow Light Snow
2:55 AM 33.1 °F - 32.0 °F 96% 30.02 in 3.0 mi Calm Calm - 0.04 in Snow Light Snow
3:03 AM 33.8 °F - 32.0 °F 93% 29.99 in 3.0 mi Calm Calm - 0.01 in Snow Light Snow
3:10 AM 33.8 °F - 32.0 °F 93% 29.99 in 2.0 mi Calm Calm - 0.01 in Snow Light Snow
3:22 AM 33.8 °F - 32.0 °F 93% 29.99 in 1.8 mi Calm Calm - 0.03 in Snow Light Snow
3:29 AM 33.8 °F - 32.0 °F 93% 29.99 in 3.0 mi Calm Calm - 0.03 in Snow Light Snow
3:47 AM 33.8 °F 30.8 °F 32.0 °F 93% 30.01 in 3.0 mi South 3.5 mph - 0.04 in Snow Light Snow
3:51 AM 33.8 °F - 32.0 °F 93% 30.01 in 1.8 mi Calm Calm - 0.04 in Snow Light Snow
3:55 AM 33.1 °F 30.0 °F 32.0 °F 96% 30.05 in 1.2 mi SSE 3.5 mph - 0.05 in Snow Light Snow
4:03 AM 33.8 °F - 32.0 °F 93% 30.01 in 1.2 mi Calm Calm - 0.01 in Snow Light Snow
4:20 AM 32.0 °F - 32.0 °F 100% 30.01 in 1.5 mi Calm Calm - 0.04 in Snow Light Snow
4:27 AM 33.8 °F - 32.0 °F 93% 30.01 in 1.2 mi Calm Calm - 0.05 in Snow Light Snow
4:34 AM 33.8 °F - 32.0 °F 93% 30.01 in 1.8 mi Calm Calm - 0.06 in Snow Light Snow
4:45 AM 33.8 °F - 32.0 °F 93% 30.01 in 1.2 mi Calm Calm - 0.06 in Snow Light Snow
4:55 AM 32.0 °F - 32.0 °F 100% 30.05 in 1.2 mi Calm Calm - 0.08 in Snow Light Snow
5:01 AM 32.0 °F 28.7 °F 30.2 °F 93% 30.01 in 2.0 mi NE 3.5 mph - 0.00 in Snow Light Snow
5:13 AM 32.0 °F 28.7 °F 32.0 °F 100% 30.00 in 3.0 mi North 3.5 mph - 0.01 in Snow Light Snow
5:16 AM 32.0 °F 28.7 °F 32.0 °F 100% 30.00 in 2.5 mi North 3.5 mph - 0.02 in Snow Light Snow
5:25 AM 32.0 °F - 32.0 °F 100% 30.00 in 1.5 mi Calm Calm - 0.02 in Snow Light Snow
5:33 AM 32.0 °F 28.7 °F 32.0 °F 100% 29.99 in 1.2 mi North 3.5 mph - 0.04 in Snow Light Snow
5:55 AM 32.0 °F - 32.0 °F 100% 30.04 in 1.8 mi Calm Calm - 0.06 in Snow Light Snow
5:58 AM 32.0 °F - 32.0 °F 100% 29.99 in 2.0 mi Calm Calm - 0.00 in Snow Light Snow
6:20 AM 32.0 °F - 32.0 °F 100% 29.98 in 1.8 mi Calm Calm - 0.00 in Snow Light Snow
6:28 AM 32.0 °F - 32.0 °F 100% 29.98 in 2.5 mi Calm Calm - 0.00 in Snow Light Snow
6:35 AM 33.8 °F - 32.0 °F 93% 29.98 in 6.0 mi Calm Calm - 0.01 in Snow Light Snow
6:55 AM 33.1 °F - 32.0 °F 96% 30.05 in 5.0 mi Calm Calm - 0.01 in Snow Light Snow
7:06 AM 33.8 °F - 32.0 °F 93% 30.00 in 5.0 mi Calm Calm - 0.00 in   Overcast
7:23 AM 33.8 °F - 32.0 °F 93% 30.00 in 2.5 mi Calm Calm - 0.00 in Snow Light Snow
7:34 AM 33.8 °F - 32.0 °F 93% 29.99 in 1.5 mi Calm Calm - 0.01 in Snow Light Snow
7:55 AM 33.1 °F - 32.0 °F 96% 30.05 in 1.5 mi Calm Calm - 0.02 in Snow Light Snow
7:56 AM 33.8 °F - 32.0 °F 93% 29.99 in 1.0 mi Calm Calm - 0.00 in Snow Light Snow
8:55 AM 34.0 °F - 32.0 °F 92% 30.06 in 1.0 mi Calm Calm - 0.04 in Snow Light Snow
8:59 AM 33.8 °F - 32.0 °F 93% 30.00 in 1.0 mi Calm Calm - 0.00 in Snow Light Snow
9:20 AM 33.8 °F - 32.0 °F 93% 30.01 in 1.0 mi Calm Calm - 0.01 in Snow Light Snow
9:55 AM 34.0 °F - 33.1 °F 96% 30.07 in 1.5 mi Calm Calm - 0.02 in Snow Light Snow
10:21 AM 35.6 °F - 33.8 °F 93% 30.01 in 2.0 mi Calm Calm - 0.01 in Rain Light Rain
10:55 AM 37.0 °F - 34.0 °F 89% 30.06 in 2.0 mi Calm Calm - 0.01 in Rain Light Rain
11:00 AM 37.4 °F - 33.8 °F 87% 30.01 in 6.0 mi Calm Calm - 0.00 in Rain Light Rain
11:55 AM 42.1 °F 38.4 °F 37.9 °F 85% 30.04 in 6.0 mi NNE 5.8 mph - 0.01 in   Mostly Cloudy
12:26 PM 42.8 °F 41.1 °F 37.4 °F 81% 30.00 in 10.0 mi Variable 3.5 mph - N/A   Overcast
12:55 PM 44.1 °F - 39.0 °F 82% 30.04 in 10.0 mi Calm Calm - N/A   Overcast
1:09 PM 44.6 °F - 37.4 °F 76% 30.00 in 10.0 mi Calm Calm - N/A   Overcast
1:48 PM 46.4 °F 45.2 °F 39.2 °F 76% 30.00 in 10.0 mi Variable 3.5 mph - N/A   Overcast
1:55 PM 46.0 °F - 37.0 °F 71% 30.04 in 10.0 mi Calm Calm - N/A   Overcast
2:55 PM 50.0 °F - 37.9 °F 63% 30.03 in 10.0 mi East 3.5 mph - N/A   Overcast
3:06 PM 48.2 °F - 37.4 °F 66% 29.99 in 10.0 mi NE 5.8 mph - N/A   Overcast
3:33 PM 51.8 °F - 39.2 °F 62% 29.99 in 10.0 mi Variable 5.8 mph - N/A   Overcast
3:55 PM 51.1 °F - 37.0 °F 59% 30.03 in 10.0 mi Variable 4.6 mph - N/A   Overcast
4:55 PM 52.0 °F - 37.9 °F 59% 30.03 in 10.0 mi Variable 4.6 mph - 0.00 in   Mostly Cloudy
5:55 PM 54.0 °F - 37.0 °F 53% 30.01 in 10.0 mi Variable 3.5 mph - N/A   Mostly Cloudy
6:55 PM 51.1 °F - 36.0 °F 56% 30.01 in 10.0 mi Calm Calm - N/A   Partly Cloudy
7:55 PM 52.0 °F - 36.0 °F 54% 29.99 in 10.0 mi North 6.9 mph - N/A   Clear
8:55 PM 48.9 °F - 37.9 °F 66% 29.98 in 10.0 mi NNE 5.8 mph - N/A   Clear
9:55 PM 46.9 °F - 39.9 °F 77% 30.00 in 10.0 mi Calm Calm - N/A   Clear
10:55 PM 44.1 °F - 39.0 °F 82% 29.98 in 10.0 mi Calm Calm - N/A   Clear
11:55 PM 43.0 °F - 37.9 °F 82% 29.98 in 10.0 mi Calm Calm - N/A   Clear